Flight Briefing for CMB865

Departure Arrival
Elmendorf Air Force Base (PAED)
Click to view FAA NOTAMS
Travis Air Force Base (KSUU)
Click to view FAA NOTAMS
Departure Time Arrival Time
N/A N/A
Aircraft Distance
B757-200SF 1728nm
Departure METAR Arrival METAR
PAED 230656Z 12008KT 10SM OVC110 12/00 A2995 RMK AO2A SLP138 T01231003 KSUU 230658Z AUTO 24005KT 10SM BKN110 15/12 A2974 RMK AO2 SLP077 T01520116 $
Suggested Route
TED V440 MDO J804R FRIED TR19 YZP Q801 YAZ J501 TOU ELMAA Q1 TOCOS SUTHU1


View recent IFR Routes data
Notes
USTRANSCOM CONTRACT FLIGHT

Charts and Procedures

Charts for PAED
No chart available
Charts for KSUU
No chart available

Windy.com Weather Map